Terminal Aerodrome Forecast
Issued by NWS

Home | Current Version | Previous Version | Graphics & Text | Print | Product List | Glossary On
Versions: 1 2 3 4 5 6 7 8 9 10 11 12 13 14 15
000
FTUS42 KMHX 281121
TAFOAJ
TAF
KOAJ 281121Z 2812/2912 VRB03KT P6SM SKC
     FM281600 10005KT P6SM SCT040 BKN200
     FM290800 VRB03KT 3SM BR BKN200
      AMD LTD TO CLD VIS AND WIND=

USA.gov is the U.S. government's official web portal to all federal, state and local government web resources and services.